FALCON 9 DEB (53581 NORAD) Tracking and Keplerian Element Data

This shows tracking and keplerian element data for the satellite.

Feedback or suggestion? Click here.




ElementValue
Catalog53581
NameFALCON 9 DEB
Epoch Orbit257
Epoch Day247.75575099
Epoch Year2022
RAAN73.2477
Inclination53.2106
Eccentricity0.0036788
Argument of Perigee101.015
Mean Anonmoly259.5029
Mean Motion16.15487443
Decay Rate0.01529549
L11 53581U 22101BG 22247.75575099 .01529549 11701-4 95174-3 0 9990
L22 53581 53.2106 73.2477 0036788 101.0150 259.5029 16.15487443 2570



Live tracking and technical data element details for FALCON 9 DEB (NORAD 53581). FALCON 9 DEB can be tracked NOW for your location showing map with azimuth and elevation plus other details from your city location.







IsCatalogInMostPopularTable: catalog: 53581, numindb: 6
Update: records affected: 1



GetName: 53581 FALCON 9 DEB

Hit Count: updated at: Thu, 08 Dec 2022 20:06:13 GMT